| time (UTC) | temp F | wind direction | speed MPH | gust MPH | rain 1hr in | rain 24hr in | rain mn in | humidity % | barometer mb |
| 20260502170504 | 46 | 112 | 1.0 | 7.0 | 0.00 | 0.05 | 0.05 | 90 | 1011.1 |
| 20260502164001 | 46 | 93 | 1.0 | 9.0 | 0.00 | 0.05 | 0.05 | 88 | 1011.2 |
| 20260502163600 | 46 | 86 | 1.0 | 9.0 | 0.00 | 0.05 | 0.05 | 88 | 1011.3 |
| 20260502163101 | 46 | 89 | 5.0 | 10.0 | 0.00 | 0.05 | 0.05 | 88 | 1011.3 |
| 20260502162602 | 46 | 43 | 3.0 | 10.0 | 0.00 | 0.05 | 0.05 | 88 | 1011.3 |
| 20260502162100 | 46 | 65 | 2.0 | 8.0 | 0.00 | 0.05 | 0.05 | 88 | 1011.5 |
| 20260502161600 | 47 | 121 | 2.0 | 8.0 | 0.00 | 0.05 | 0.05 | 88 | 1011.4 |
| 20260502161059 | 46 | 88 | 3.0 | 10.0 | 0.00 | 0.05 | 0.05 | 87 | 1011.4 |
| 20260502160559 | 46 | 121 | 5.0 | 10.0 | 0.00 | 0.05 | 0.05 | 87 | 1011.5 |
| 20260502152100 | 46 | 130 | 5.0 | 13.0 | 0.01 | 0.05 | 0.05 | 88 | 1011.8 |
| 20260502151611 | 45 | 109 | 5.0 | 13.0 | 0.01 | 0.05 | 0.05 | 88 | 1011.9 |
| 20260502151053 | 45 | 133 | 3.0 | 12.0 | 0.01 | 0.05 | 0.05 | 87 | 1011.9 |
| 20260502150553 | 45 | 62 | 3.0 | 11.0 | 0.01 | 0.05 | 0.05 | 87 | 1011.7 |
| 20260502130544 | 44 | 67 | 2.0 | 6.0 | 0.01 | 0.01 | 0.01 | 82 | 1012.8 |
| 20260502123542 | 44 | 50 | 5.0 | 11.0 | 0.01 | 0.01 | 0.01 | 82 | 1012.4 |
| 20260502123045 | 45 | 58 | 2.0 | 10.0 | 0.01 | 0.01 | 0.01 | 82 | 1012.5 |
| 20260502122542 | 45 | 33 | 3.0 | 10.0 | 0.01 | 0.01 | 0.01 | 82 | 1012.5 |
| 20260502122042 | 45 | 82 | 2.0 | 6.0 | 0.01 | 0.01 | 0.01 | 82 | 1012.9 |
| 20260502121541 | 45 | 40 | 1.0 | 4.0 | 0.00 | 0.00 | 0.00 | 82 | 1013.1 |
| 20260502121041 | 45 | 49 | 2.0 | 4.0 | 0.00 | 0.00 | 0.00 | 81 | 1013.0 |
| 20260502120541 | 46 | 70 | 2.0 | 6.0 | 0.00 | 0.00 | 0.00 | 81 | 1013.2 |
| 20260502115540 | 46 | 348 | 1.0 | 3.0 | 0.00 | 0.00 | 0.00 | 79 | 1013.2 |
| 20260502115039 | 46 | 343 | 0.0 | 3.0 | 0.00 | 0.00 | 0.00 | 78 | 1013.2 |
| 20260502114540 | 45 | 344 | 1.0 | 4.0 | 0.00 | 0.00 | 0.00 | 78 | 1013.1 |
| 20260502114038 | 45 | 345 | 1.0 | 6.0 | 0.00 | 0.00 | 0.00 | 77 | 1013.1 |
| 20260502113536 | 45 | 90 | 2.0 | 4.0 | 0.00 | 0.00 | 0.00 | 79 | 1012.8 |
| 20260502113043 | 45 | 13 | 1.0 | 5.0 | 0.00 | 0.00 | 0.00 | 79 | 1012.6 |
| 20260502112535 | 45 | 42 | 2.0 | 7.0 | 0.00 | 0.00 | 0.00 | 80 | 1012.6 |
| 20260502112035 | 45 | 72 | 2.0 | 7.0 | 0.00 | 0.00 | 0.00 | 81 | 1012.6 |
| 20260502111533 | 45 | 47 | 3.0 | 6.0 | 0.00 | 0.00 | 0.00 | 82 | 1012.4 |
| 20260502111032 | 44 | 49 | 1.0 | 5.0 | 0.00 | 0.00 | 0.00 | 82 | 1012.6 |
| 20260502110532 | 44 | 70 | 1.0 | 6.0 | 0.00 | 0.00 | 0.00 | 82 | 1012.5 |
| 20260502110036 | 44 | 38 | 3.0 | 6.0 | 0.00 | 0.00 | 0.00 | 83 | 1012.4 |
| 20260502105530 | 44 | 88 | 2.0 | 4.0 | 0.00 | 0.00 | 0.00 | 84 | 1012.5 |
| 20260502105030 | 44 | 96 | 1.0 | 4.0 | 0.00 | 0.00 | 0.00 | 84 | 1012.6 |
| 20260502104534 | 44 | 99 | 1.0 | 4.0 | 0.00 | 0.00 | 0.00 | 85 | 1012.4 |
| 20260502104028 | 43 | 140 | 1.0 | 4.0 | 0.00 | 0.00 | 0.00 | 85 | 1012.4 |
| 20260502103530 | 43 | 51 | 0.0 | 6.0 | 0.00 | 0.00 | 0.00 | 86 | 1012.2 |
| 20260502103027 | 43 | 84 | 2.0 | 6.0 | 0.00 | 0.00 | 0.00 | 86 | 1012.1 |
| 20260502102526 | 43 | 95 | 1.0 | 5.0 | 0.00 | 0.00 | 0.00 | 87 | 1012.1 |
| 20260502102027 | 42 | 20 | 1.0 | 3.0 | 0.00 | 0.00 | 0.00 | 87 | 1012.0 |
| 20260502101524 | 42 | 277 | 0.0 | 6.0 | 0.00 | 0.00 | 0.00 | 86 | 1011.8 |
| 20260502101023 | 42 | 90 | 2.0 | 6.0 | 0.00 | 0.00 | 0.00 | 86 | 1011.7 |
| 20260502100523 | 42 | 73 | 1.0 | 4.0 | 0.00 | 0.00 | 0.00 | 86 | 1011.6 |
| 20260502091520 | 41 | 13 | 0.0 | 2.0 | 0.00 | 0.00 | 0.00 | 81 | 1011.6 |
| 20260502091018 | 41 | 11 | 0.0 | 2.0 | 0.00 | 0.00 | 0.00 | 81 | 1011.7 |
| 20260502090520 | 41 | 11 | 0.0 | 2.0 | 0.00 | 0.00 | 0.00 | 81 | 1011.9 |
| 20260502071508 | 41 | 329 | 0.0 | 2.0 | 0.00 | 0.00 | 0.00 | 83 | 1011.8 |
| 20260502071008 | 41 | 329 | 0.0 | 2.0 | 0.00 | 0.00 | 0.00 | 84 | 1011.8 |
| 20260502070507 | 41 | 329 | 1.0 | 2.0 | 0.00 | 0.00 | 0.00 | 83 | 1011.8 |
| 20260502070007 | 41 | 329 | 0.0 | 1.0 | 0.00 | 0.00 | 0.00 | 83 | 1011.7 |
| 20260502065507 | 41 | 329 | 0.0 | 2.0 | 0.00 | 0.00 | 0.00 | 83 | 1011.7 |
| 20260502065011 | 40 | 329 | 0.0 | 2.0 | 0.00 | 0.00 | 0.00 | 83 | 1011.6 |
| 20260502064506 | 40 | 329 | 0.0 | 0.0 | 0.00 | 0.00 | 0.00 | 83 | 1011.5 |
| 20260502064005 | 40 | 329 | 0.0 | 1.0 | 0.00 | 0.00 | 0.00 | 83 | 1011.4 |
| 20260502063506 | 40 | 329 | 0.0 | 1.0 | 0.00 | 0.00 | 0.00 | 82 | 1011.3 |
| 20260502063003 | 40 | 329 | 0.0 | 2.0 | 0.00 | 0.00 | 0.00 | 82 | 1011.3 |
| 20260502062503 | 40 | 329 | 0.0 | 2.0 | 0.00 | 0.00 | 0.00 | 81 | 1011.3 |
| 20260502062003 | 40 | 329 | 0.0 | 1.0 | 0.00 | 0.00 | 0.00 | 81 | 1011.2 |
| 20260502061602 | 40 | 329 | 0.0 | 1.0 | 0.00 | 0.00 | 0.00 | 81 | 1011.2 |
| 20260502061003 | 40 | 329 | 0.0 | 0.0 | 0.00 | 0.00 | 0.00 | 80 | 1011.2 |
| 20260502060503 | 40 | 329 | 0.0 | 0.0 | 0.00 | 0.00 | 0.00 | 79 | 1011.2 |
| 20260502060006 | 40 | 329 | 0.0 | 0.0 | 0.00 | 0.00 | 0.00 | 79 | 1011.3 |
| 20260502055501 | 40 | 329 | 0.0 | 1.0 | 0.00 | 0.00 | 0.00 | 78 | 1011.3 |
| 20260502055104 | 40 | 329 | 0.0 | 1.0 | 0.00 | 0.00 | 0.00 | 78 | 1011.2 |
| 20260502054615 | 40 | 329 | 0.0 | 2.0 | 0.00 | 0.00 | 0.00 | 78 | 1011.2 |
| 20260502054101 | 40 | 329 | 0.0 | 1.0 | 0.00 | 0.00 | 0.00 | 78 | 1011.2 |
| 20260502053558 | 40 | 329 | 0.0 | 1.0 | 0.00 | 0.00 | 0.00 | 77 | 1011.2 |
| 20260502053058 | 40 | 329 | 0.0 | 2.0 | 0.00 | 0.00 | 0.00 | 77 | 1011.3 |
| 20260502052557 | 40 | 329 | 0.0 | 2.0 | 0.00 | 0.00 | 0.00 | 77 | 1011.3 |
| 20260502052056 | 41 | 329 | 0.0 | 2.0 | 0.00 | 0.00 | 0.00 | 76 | 1011.2 |
| 20260502051555 | 41 | 329 | 0.0 | 2.0 | 0.00 | 0.00 | 0.00 | 75 | 1011.1 |
| 20260502051054 | 41 | 329 | 0.0 | 1.0 | 0.00 | 0.00 | 0.00 | 75 | 1011.1 |
| 20260502050554 | 41 | 329 | 0.0 | 0.0 | 0.00 | 0.00 | 0.00 | 74 | 1011.1 |
| 20260502050058 | 41 | 329 | 0.0 | 1.0 | 0.00 | 0.00 | 0.00 | 73 | 1011.1 |
| 20260502045554 | 41 | 329 | 0.0 | 1.0 | 0.00 | 0.00 | 0.00 | 73 | 1011.1 |
| 20260502045052 | 41 | 329 | 0.0 | 1.0 | 0.00 | 0.00 | 0.00 | 72 | 1011.1 |
| 20260502044552 | 41 | 329 | 0.0 | 0.0 | 0.00 | 0.00 | 0.00 | 72 | 1011.1 |
| 20260502044053 | 41 | 329 | 0.0 | 0.0 | 0.00 | 0.00 | 0.00 | 72 | 1011.1 |
| 20260502043551 | 42 | 329 | 0.0 | 0.0 | 0.00 | 0.00 | 0.00 | 71 | 1011.1 |
| 20260502043109 | 42 | 329 | 0.0 | 1.0 | 0.00 | 0.00 | 0.00 | 71 | 1011.2 |
| 20260502042550 | 42 | 329 | 0.0 | 2.0 | 0.00 | 0.00 | 0.00 | 71 | 1011.1 |
| 20260502042151 | 42 | 329 | 0.0 | 2.0 | 0.00 | 0.00 | 0.00 | 70 | 1011.1 |
| 20260502041611 | 42 | 329 | 0.0 | 0.0 | 0.00 | 0.00 | 0.00 | 70 | 1010.9 |
| 20260502041047 | 42 | 329 | 0.0 | 1.0 | 0.00 | 0.00 | 0.00 | 69 | 1011.0 |
| 20260502040550 | 42 | 329 | 0.0 | 2.0 | 0.00 | 0.00 | 0.00 | 69 | 1010.9 |
| 20260502040054 | 42 | 329 | 0.0 | 2.0 | 0.00 | 0.00 | 0.00 | 68 | 1011.0 |
| 20260502035546 | 42 | 329 | 0.0 | 1.0 | 0.00 | 0.00 | 0.00 | 67 | 1011.0 |
| 20260502035046 | 42 | 329 | 0.0 | 0.0 | 0.00 | 0.00 | 0.00 | 67 | 1011.0 |
| 20260502034547 | 42 | 329 | 0.0 | 0.0 | 0.00 | 0.00 | 0.00 | 66 | 1010.8 |
| 20260502034044 | 43 | 329 | 0.0 | 0.0 | 0.00 | 0.00 | 0.00 | 66 | 1010.9 |
| 20260502033543 | 43 | 329 | 0.0 | 0.0 | 0.00 | 0.00 | 0.00 | 65 | 1010.9 |
| 20260502033043 | 43 | 329 | 0.0 | 1.0 | 0.00 | 0.00 | 0.00 | 65 | 1010.9 |
| 20260502032542 | 43 | 329 | 0.0 | 1.0 | 0.00 | 0.00 | 0.00 | 65 | 1010.9 |
| 20260502032041 | 43 | 329 | 0.0 | 1.0 | 0.00 | 0.00 | 0.00 | 64 | 1010.8 |
| 20260502031540 | 43 | 328 | 0.0 | 1.0 | 0.00 | 0.00 | 0.00 | 64 | 1010.9 |
| 20260502031040 | 44 | 328 | 0.0 | 1.0 | 0.00 | 0.00 | 0.00 | 63 | 1010.8 |
| 20260502030540 | 44 | 328 | 0.0 | 1.0 | 0.00 | 0.00 | 0.00 | 63 | 1010.8 |
| 20260502030055 | 44 | 328 | 0.0 | 2.0 | 0.00 | 0.00 | 0.00 | 62 | 1010.9 |
| 20260502025538 | 44 | 328 | 0.0 | 2.0 | 0.00 | 0.00 | 0.00 | 62 | 1010.8 |
| 20260502025042 | 44 | 328 | 0.0 | 0.0 | 0.00 | 0.00 | 0.00 | 61 | 1010.8 |
| 20260502024551 | 45 | 328 | 0.0 | 0.0 | 0.00 | 0.00 | 0.00 | 59 | 1010.8 |
| 20260502024039 | 45 | 328 | 0.0 | 0.0 | 0.00 | 0.00 | 0.00 | 60 | 1010.7 |
| 20260502023539 | 45 | 328 | 0.0 | 0.0 | 0.00 | 0.00 | 0.00 | 61 | 1010.8 |
| 20260502023054 | 45 | 328 | 0.0 | 0.0 | 0.00 | 0.00 | 0.00 | 60 | 1010.9 |
| 20260502022538 | 46 | 328 | 0.0 | 0.0 | 0.00 | 0.00 | 0.00 | 61 | 1010.8 |
| 20260502022037 | 46 | 328 | 0.0 | 0.0 | 0.00 | 0.00 | 0.00 | 60 | 1010.8 |
| 20260502021538 | 46 | 328 | 0.0 | 0.0 | 0.00 | 0.00 | 0.00 | 60 | 1010.7 |
| 20260502021036 | 47 | 328 | 0.0 | 1.0 | 0.00 | 0.00 | 0.00 | 60 | 1010.7 |
| 20260502020537 | 47 | 328 | 0.0 | 3.0 | 0.00 | 0.00 | 0.00 | 60 | 1010.8 |
| 20260502020036 | 48 | 328 | 1.0 | 3.0 | 0.00 | 0.00 | 0.00 | 58 | 1010.7 |
| 20260502015536 | 48 | 329 | 0.0 | 2.0 | 0.00 | 0.00 | 0.00 | 57 | 1010.6 |
| 20260502015036 | 49 | 328 | 0.0 | 1.0 | 0.00 | 0.00 | 0.00 | 57 | 1010.7 |
| 20260502014539 | 49 | 329 | 0.0 | 3.0 | 0.00 | 0.00 | 0.00 | 56 | 1010.7 |
| 20260502014035 | 50 | 328 | 1.0 | 3.0 | 0.00 | 0.00 | 0.00 | 53 | 1010.7 |
| 20260502013535 | 50 | 329 | 1.0 | 3.0 | 0.00 | 0.00 | 0.00 | 48 | 1010.7 |
| 20260502013037 | 50 | 331 | 1.0 | 6.0 | 0.00 | 0.00 | 0.00 | 46 | 1010.6 |
| 20260502012537 | 51 | 313 | 2.0 | 6.0 | 0.00 | 0.00 | 0.00 | 46 | 1010.5 |
| 20260502012034 | 51 | 332 | 2.0 | 4.0 | 0.00 | 0.00 | 0.00 | 46 | 1010.5 |
| 20260502011538 | 51 | 340 | 1.0 | 5.0 | 0.00 | 0.00 | 0.00 | 45 | 1010.3 |
| 20260502011032 | 51 | 301 | 2.0 | 5.0 | 0.00 | 0.00 | 0.00 | 43 | 1010.4 |
| 20260502010531 | 52 | 321 | 2.0 | 6.0 | 0.00 | 0.00 | 0.00 | 43 | 1010.3 |
| 20260502010031 | 52 | 307 | 3.0 | 9.0 | 0.00 | 0.00 | 0.00 | 41 | 1010.4 |
| 20260502005530 | 52 | 318 | 2.0 | 9.0 | 0.00 | 0.00 | 0.00 | 41 | 1010.2 |
| 20260502005032 | 53 | 297 | 2.0 | 5.0 | 0.00 | 0.00 | 0.00 | 42 | 1010.2 |
| 20260502004530 | 53 | 312 | 2.0 | 5.0 | 0.00 | 0.00 | 0.00 | 41 | 1010.2 |
| 20260502004030 | 53 | 319 | 2.0 | 8.0 | 0.00 | 0.00 | 0.00 | 42 | 1010.1 |
| 20260502003528 | 53 | 317 | 2.0 | 5.0 | 0.00 | 0.00 | 0.00 | 40 | 1010.0 |
| 20260502003028 | 54 | 306 | 1.0 | 3.0 | 0.00 | 0.00 | 0.00 | 39 | 1010.0 |
| 20260502002528 | 54 | 305 | 1.0 | 3.0 | 0.00 | 0.00 | 0.00 | 39 | 1009.9 |
| 20260502002028 | 54 | 338 | 1.0 | 6.0 | 0.00 | 0.00 | 0.00 | 38 | 1009.8 |
| 20260502001536 | 54 | 338 | 2.0 | 6.0 | 0.00 | 0.00 | 0.00 | 38 | 1009.5 |
| 20260502001029 | 55 | 307 | 1.0 | 4.0 | 0.00 | 0.00 | 0.00 | 38 | 1009.4 |
| 20260502000524 | 55 | 298 | 2.0 | 5.0 | 0.00 | 0.00 | 0.00 | 37 | 1009.3 |
| 20260502000029 | 55 | 281 | 2.0 | 6.0 | 0.00 | 0.00 | 0.00 | 37 | 1009.1 |
| 20260501235523 | 55 | 265 | 3.0 | 6.0 | 0.00 | 0.00 | 0.00 | 37 | 1009.0 |
| 20260501235022 | 55 | 267 | 1.0 | 9.0 | 0.00 | 0.00 | 0.00 | 37 | 1009.0 |
| 20260501234522 | 55 | 295 | 3.0 | 9.0 | 0.00 | 0.00 | 0.00 | 36 | 1008.8 |
| 20260501234021 | 55 | 272 | 4.0 | 9.0 | 0.00 | 0.00 | 0.00 | 36 | 1008.7 |
| 20260501233521 | 56 | 263 | 4.0 | 9.0 | 0.00 | 0.00 | 0.00 | 36 | 1008.6 |
| 20260501233020 | 56 | 267 | 5.0 | 9.0 | 0.00 | 0.00 | 0.00 | 36 | 1008.5 |
| 20260501232522 | 56 | 294 | 2.0 | 9.0 | 0.00 | 0.00 | 0.00 | 36 | 1008.5 |
| 20260501232023 | 56 | 284 | 4.0 | 11.0 | 0.00 | 0.00 | 0.00 | 35 | 1008.5 |
| 20260501231519 | 56 | 285 | 3.0 | 14.0 | 0.00 | 0.00 | 0.00 | 35 | 1008.4 |
| 20260501231016 | 57 | 321 | 5.0 | 14.0 | 0.00 | 0.00 | 0.00 | 34 | 1008.3 |
| 20260501230516 | 57 | 246 | 6.0 | 13.0 | 0.00 | 0.00 | 0.00 | 34 | 1008.2 |
| 20260501230031 | 57 | 263 | 5.0 | 11.0 | 0.00 | 0.00 | 0.00 | 35 | 1008.1 |
| 20260501225515 | 57 | 275 | 3.0 | 12.0 | 0.00 | 0.00 | 0.00 | 35 | 1008.0 |
| 20260501225018 | 58 | 263 | 6.0 | 17.0 | 0.00 | 0.00 | 0.00 | 34 | 1008.0 |
| 20260501224513 | 58 | 319 | 8.0 | 17.0 | 0.00 | 0.00 | 0.00 | 34 | 1007.9 |
| 20260501224012 | 58 | 259 | 7.0 | 13.0 | 0.00 | 0.00 | 0.00 | 35 | 1007.7 |
| 20260501223511 | 58 | 267 | 5.0 | 13.0 | 0.00 | 0.00 | 0.00 | 36 | 1007.7 |
| 20260501223018 | 58 | 264 | 4.0 | 13.0 | 0.00 | 0.00 | 0.00 | 35 | 1007.5 |
| 20260501222511 | 58 | 296 | 4.0 | 15.0 | 0.00 | 0.00 | 0.00 | 36 | 1007.4 |
| 20260501222012 | 59 | 261 | 8.0 | 15.0 | 0.00 | 0.00 | 0.00 | 35 | 1007.3 |
| 20260501221511 | 59 | 276 | 4.0 | 12.0 | 0.00 | 0.00 | 0.00 | 36 | 1007.3 |
| 20260501221010 | 59 | 306 | 4.0 | 13.0 | 0.00 | 0.00 | 0.00 | 34 | 1007.2 |
| 20260501220509 | 59 | 297 | 5.0 | 13.0 | 0.00 | 0.00 | 0.00 | 36 | 1007.2 |
| 20260501220009 | 59 | 261 | 4.0 | 9.0 | 0.00 | 0.01 | 0.00 | 36 | 1007.2 |
| 20260501215509 | 60 | 338 | 4.0 | 9.0 | 0.00 | 0.01 | 0.00 | 36 | 1007.2 |
| 20260501215008 | 60 | 308 | 3.0 | 12.0 | 0.00 | 0.01 | 0.00 | 36 | 1007.1 |
| 20260501214509 | 60 | 285 | 6.0 | 12.0 | 0.00 | 0.01 | 0.00 | 37 | 1007.0 |
| 20260501214010 | 60 | 351 | 4.0 | 14.0 | 0.00 | 0.01 | 0.00 | 38 | 1007.1 |
| 20260501213508 | 60 | 271 | 5.0 | 14.0 | 0.00 | 0.01 | 0.00 | 35 | 1007.0 |
| 20260501213009 | 60 | 267 | 2.0 | 11.0 | 0.00 | 0.01 | 0.00 | 36 | 1007.0 |
| 20260501212507 | 60 | 254 | 4.0 | 11.0 | 0.00 | 0.01 | 0.00 | 39 | 1006.9 |
| 20260501212007 | 60 | 331 | 5.0 | 11.0 | 0.00 | 0.01 | 0.00 | 39 | 1007.0 |
| 20260501211507 | 60 | 311 | 5.0 | 11.0 | 0.00 | 0.01 | 0.00 | 39 | 1006.9 |
| 20260501211009 | 60 | 278 | 4.0 | 11.0 | 0.00 | 0.01 | 0.00 | 39 | 1007.0 |
| 20260501210505 | 60 | 304 | 5.0 | 15.0 | 0.00 | 0.01 | 0.00 | 41 | 1006.9 |
| 20260501210006 | 60 | 326 | 4.0 | 15.0 | 0.00 | 0.03 | 0.00 | 41 | 1006.9 |
| 20260501205505 | 60 | 331 | 7.0 | 11.0 | 0.00 | 0.03 | 0.00 | 42 | 1006.7 |
| 20260501205004 | 60 | 360 | 6.0 | 11.0 | 0.00 | 0.03 | 0.00 | 42 | 1006.7 |
| 20260501204505 | 60 | 23 | 5.0 | 11.0 | 0.00 | 0.03 | 0.00 | 43 | 1006.6 |
| 20260501204003 | 60 | 299 | 6.0 | 11.0 | 0.00 | 0.03 | 0.00 | 40 | 1006.4 |
| 20260501203502 | 60 | 265 | 4.0 | 15.0 | 0.00 | 0.03 | 0.00 | 43 | 1006.5 |
| 20260501203013 | 60 | 300 | 6.0 | 15.0 | 0.00 | 0.03 | 0.00 | 43 | 1006.4 |
| 20260501202502 | 60 | 336 | 3.0 | 11.0 | 0.00 | 0.03 | 0.00 | 43 | 1006.6 |
| 20260501202002 | 59 | 319 | 3.0 | 11.0 | 0.00 | 0.03 | 0.00 | 43 | 1006.5 |
| 20260501201602 | 59 | 300 | 3.0 | 11.0 | 0.00 | 0.03 | 0.00 | 45 | 1006.5 |
| 20260501201105 | 59 | 331 | 4.0 | 11.0 | 0.00 | 0.03 | 0.00 | 48 | 1006.5 |
| 20260501200559 | 59 | 309 | 4.0 | 13.0 | 0.00 | 0.03 | 0.00 | 50 | 1006.5 |
| 20260501200100 | 59 | 65 | 2.0 | 13.0 | 0.00 | 0.06 | 0.00 | 56 | 1006.4 |
| 20260501195558 | 59 | 18 | 6.0 | 11.0 | 0.00 | 0.06 | 0.00 | 50 | 1006.4 |
| 20260501195059 | 58 | 49 | 1.0 | 4.0 | 0.00 | 0.06 | 0.00 | 53 | 1006.5 |
| 20260501194601 | 58 | 53 | 1.0 | 9.0 | 0.00 | 0.06 | 0.00 | 55 | 1006.5 |
| 20260501194059 | 59 | 132 | 4.0 | 9.0 | 0.00 | 0.06 | 0.00 | 53 | 1006.3 |
| 20260501193559 | 59 | 126 | 3.0 | 8.0 | 0.00 | 0.06 | 0.00 | 52 | 1006.5 |
| 20260501193058 | 59 | 35 | 4.0 | 8.0 | 0.00 | 0.06 | 0.00 | 49 | 1006.5 |
| 20260501192557 | 59 | 17 | 3.0 | 13.0 | 0.00 | 0.06 | 0.00 | 47 | 1006.4 |
| 20260501192056 | 59 | 332 | 6.0 | 10.0 | 0.00 | 0.06 | 0.00 | 47 | 1006.5 |
| 20260501191555 | 59 | 280 | 3.0 | 8.0 | 0.00 | 0.06 | 0.00 | 48 | 1006.5 |
| 20260501191057 | 58 | 284 | 3.0 | 12.0 | 0.00 | 0.06 | 0.00 | 47 | 1006.4 |
| 20260501190558 | 58 | 269 | 5.0 | 12.0 | 0.00 | 0.06 | 0.00 | 48 | 1006.5 |
| 20260501190055 | 58 | 288 | 3.0 | 9.0 | 0.00 | 0.13 | 0.00 | 48 | 1006.5 |
| 20260501185554 | 58 | 263 | 2.0 | 12.0 | 0.00 | 0.13 | 0.00 | 49 | 1006.5 |
| 20260501185054 | 58 | 277 | 4.0 | 13.0 | 0.00 | 0.13 | 0.00 | 48 | 1006.5 |
| 20260501184554 | 58 | 265 | 6.0 | 13.0 | 0.00 | 0.13 | 0.00 | 47 | 1006.6 |
| 20260501184055 | 58 | 288 | 5.0 | 12.0 | 0.00 | 0.13 | 0.00 | 47 | 1006.5 |
| 20260501183554 | 58 | 292 | 5.0 | 10.0 | 0.00 | 0.13 | 0.00 | 48 | 1006.5 |
| 20260501183054 | 58 | 266 | 5.0 | 12.0 | 0.00 | 0.13 | 0.00 | 48 | 1006.6 |
| 20260501182556 | 58 | 321 | 5.0 | 15.0 | 0.00 | 0.13 | 0.00 | 51 | 1006.5 |
| 20260501182054 | 57 | 308 | 7.0 | 15.0 | 0.00 | 0.13 | 0.00 | 49 | 1006.4 |
| 20260501181556 | 57 | 290 | 2.0 | 10.0 | 0.00 | 0.13 | 0.00 | 51 | 1006.5 |
| 20260501181053 | 57 | 255 | 3.0 | 10.0 | 0.00 | 0.13 | 0.00 | 51 | 1006.5 |
| 20260501180553 | 57 | 264 | 5.0 | 10.0 | 0.00 | 0.13 | 0.00 | 51 | 1006.6 |
| 20260501180052 | 56 | 223 | 2.0 | 9.0 | 0.00 | 0.23 | 0.00 | 52 | 1006.5 |
| 20260501175552 | 56 | 284 | 2.0 | 9.0 | 0.00 | 0.23 | 0.00 | 51 | 1006.6 |
| 20260501175051 | 56 | 288 | 3.0 | 10.0 | 0.00 | 0.23 | 0.00 | 51 | 1006.6 |
| 20260501174552 | 57 | 256 | 4.0 | 10.0 | 0.00 | 0.23 | 0.00 | 51 | 1006.6 |
| 20260501174051 | 57 | 328 | 3.0 | 10.0 | 0.00 | 0.23 | 0.00 | 50 | 1006.5 |
| 20260501173551 | 57 | 327 | 5.0 | 11.0 | 0.00 | 0.23 | 0.00 | 50 | 1006.5 |
| 20260501173104 | 57 | 303 | 6.0 | 11.0 | 0.00 | 0.23 | 0.00 | 51 | 1006.6 |
| 20260501172552 | 56 | 277 | 3.0 | 8.0 | 0.00 | 0.23 | 0.00 | 52 | 1006.6 |
| 20260501172050 | 56 | 253 | 2.0 | 12.0 | 0.00 | 0.23 | 0.00 | 54 | 1006.6 |
| 20260501171550 | 56 | 269 | 5.0 | 12.0 | 0.00 | 0.23 | 0.00 | 53 | 1006.7 |